軌道要素
Epoch 2016 Sept. 9.0 TT = JDT 2457640.5
T 2016 Aug. 31.07547 TT MPCW
q 1.4314367 (2000.0) P Q
n 0.13012256 Peri. 216.14964 -0.20036869 -0.97754252
a 3.8568640 Node 245.48981 +0.91487448 -0.16284805
e 0.6288599 Incl. 4.11497 +0.35050972 -0.13375776
P 7.57
From 2982 observations 1994 Jan. 7-2017 May 1, mean residual 0".6.
Nongravitational parameters A1 = +0.74, A2 = +0.0097.
|